Location: Buckland
(65.9785°N, 161.1281°W)
Time: 06:58:32
(UTC+00:00)

Transit 4A - Pass Details

Date: 02 August 2021
Orbit: 870 x 974 km, 66.8° (Epoch: 27 September)

Event Time Altitude Azimuth Distance (km) Brightness Sun altitude
Exits shadow 10:51:34 - 190° (S) 2,766 9.7 -6.4°
Reaches altitude 10° 10:52:16 10° 187° (S) 2,529 9.5 -6.4°
Maximum altitude 10:57:24 33° 126° (SE) 1,430 8.6 -6.4°
Drops below altitude 10° 11:02:31 10° 64° (ENE) 2,531 10.6 -6.4°
Sets 11:05:13 0° 55° (NE) 3,477 11.5 -6.3°
